Volver al catálogo

STARLINK-5799

ActivoComunicacionesVLEO
NORAD 56002·PAYLOAD·🇺🇸 United States

Lanzado Mar 24, 2023 desde Cape Canaveral Space Force Station

Loading…

Próximos Pases (próximas 24 horas)

TLE

ActualizadoSource: CelesTrak SupGP

Época: Sep 15, 2026, 02:03 UTC

1 56002C 23042S   26258.08590278 -.00030471  00000+0 -11034-2 0  2581
2 56002  43.0039  69.8797 0001845 271.9266 188.7356 15.27601759    13

Sigue STARLINK-5799 en tiempo real con AllMySat

Download on the App Store